User: anonymous   Login
Location: Krakow
(50.0212°N, 19.9423°E)
Time: 01:13:23
(UTC+02:00)
Language:

CAS-6 - Orbit

View from above orbital plane
View from above orbital plane
View from above satellite
View from above satellite

Ground track
Ground track

The orbit data is extracted from the following two-line orbital elements,

1 44881U 19093C   24115.55910274  .00003425  00000-0  42156-3 0  9998
2 44881  97.8292 193.3797 0015522 134.7169 225.5312 14.83533516235097
Epoch (UTC): 24 April 2024 13:25:06
Eccentricity: 0.0015522
inclination: 97.8292°
perigee height: 607 km
apogee height: 629 km
right ascension of ascending node: 193.3797°
argument of perigee: 134.7169°
revolutions per day: 14.83533516
mean anomaly at epoch: 225.5312°
orbit number at epoch: 23509

The dashed part of the orbit path shows where the satellite is in the earth's shadow,  

DLR